Lake Oliver Weather Center

Moon Phase Calendar



Lake Oliver Water Level
Online Cameras

 


      

Current Conditions in Smiths
4/16/2024 7:02:13 PM

82°F
Feels Like 84
Clouds
Humidity
55%
Pressure
30.06"
Wind
6.5 mph (SSW)
Dew Point
64°F
UV Index
0/10 (Low)
Visibility
6 mi

Hourly Forecast

Date & Time Tue, Apr 16
7:00 PM
Tue, Apr 16
8:00 PM
Tue, Apr 16
9:00 PM
Tue, Apr 16
10:00 PM
Tue, Apr 16
11:00 PM
Wed, Apr 17
12:00 AM
Wed, Apr 17
1:00 AM
Wed, Apr 17
2:00 AM
Wed, Apr 17
3:00 AM
Wed, Apr 17
4:00 AM
Wed, Apr 17
5:00 AM
Wed, Apr 17
6:00 AM
Wed, Apr 17
7:00 AM
Wed, Apr 17
8:00 AM
Wed, Apr 17
9:00 AM
Wed, Apr 17
10:00 AM
Wed, Apr 17
11:00 AM
Wed, Apr 17
12:00 PM
Wed, Apr 17
1:00 PM
Wed, Apr 17
2:00 PM
Wed, Apr 17
3:00 PM
Wed, Apr 17
4:00 PM
Wed, Apr 17
5:00 PM
Wed, Apr 17
6:00 PM
Wed, Apr 17
7:00 PM
Wed, Apr 17
8:00 PM
Wed, Apr 17
9:00 PM
Wed, Apr 17
10:00 PM
Wed, Apr 17
11:00 PM
Thu, Apr 18
12:00 AM
Thu, Apr 18
1:00 AM
Thu, Apr 18
2:00 AM
Thu, Apr 18
3:00 AM
Thu, Apr 18
4:00 AM
Thu, Apr 18
5:00 AM
Thu, Apr 18
6:00 AM
Thu, Apr 18
7:00 AM
Thu, Apr 18
8:00 AM
Thu, Apr 18
9:00 AM
Thu, Apr 18
10:00 AM
Thu, Apr 18
11:00 AM
Thu, Apr 18
12:00 PM
Thu, Apr 18
1:00 PM
Thu, Apr 18
2:00 PM
Thu, Apr 18
3:00 PM
Thu, Apr 18
4:00 PM
Thu, Apr 18
5:00 PM
Thu, Apr 18
6:00 PM
Condition
Clouds

Clouds

Clouds

Clouds

Clouds

Clouds

Clouds

Clouds

Clouds

Clouds

Clouds

Clouds

Clouds

Clouds

Clouds

Clouds

Clouds

Clouds

Clouds

Clouds

Clouds

Clouds

Clouds

Clouds

Clouds

Clouds

Clouds

Clouds

Clouds

Clouds

Clouds

Clouds

Clouds

Clouds

Clouds

Clouds

Clouds

Clouds

Clouds

Clouds

Clouds

Clouds

Clouds

Clouds

Clouds

Clouds

Clouds

Clouds
Temperature 82°F80°F77°F74°F70°F66°F66°F65°F64°F65°F63°F64°F62°F63°F67°F70°F73°F77°F80°F81°F83°F83°F82°F79°F76°F74°F72°F71°F70°F68°F67°F66°F66°F66°F64°F64°F64°F66°F69°F73°F75°F79°F81°F83°F84°F85°F84°F81°F
Feels Like 84°F82°F78°F74°F70°F66°F66°F65°F64°F65°F63°F64°F62°F63°F66°F69°F73°F77°F80°F81°F82°F82°F82°F79°F76°F74°F73°F71°F70°F68°F67°F66°F66°F66°F65°F65°F64°F66°F70°F73°F75°F79°F83°F84°F86°F86°F85°F83°F
Cloudiness 84%84%84%89%93%96%97%98%100%100%100%100%100%100%100%100%100%100%100%100%100%100%100%100%100%100%100%100%100%100%100%97%100%100%100%100%100%100%90%95%97%98%98%98%100%100%100%100%
Visibility 6 mi6 mi6 mi6 mi6 mi6 mi6 mi6 mi6 mi6 mi6 mi6 mi6 mi6 mi6 mi6 mi6 mi6 mi6 mi6 mi6 mi6 mi6 mi6 mi6 mi6 mi6 mi6 mi6 mi6 mi6 mi6 mi6 mi6 mi6 mi6 mi6 mi6 mi6 mi6 mi6 mi6 mi6 mi6 mi6 mi6 mi6 mi6 mi
Precipitation 0%0%0%0%0%0%0%0%0%0%0%0%0%0%0%0%0%0%0%0%0%0%0%0%0%0%0%0%0%0%0%0%0%0%0%0%0%0%0%0%0%0%0%0%0%0%0%0%
Humidity 55%57%61%66%71%77%77%79%80%78%81%78%82%79%68%59%52%47%44%42%40%42%44%54%64%68%71%73%75%78%81%85%87%88%93%94%94%90%79%71%66%60%55%52%50%49%50%58%
Dew Point 64°F64°F63°F62°F61°F58°F58°F58°F57°F57°F56°F56°F56°F56°F55°F55°F55°F55°F56°F56°F56°F57°F58°F61°F63°F62°F62°F62°F61°F61°F61°F61°F61°F62°F62°F62°F62°F62°F63°F63°F63°F63°F63°F64°F63°F63°F63°F65°F
Pressure 30.06"30.06"30.06"30.09"30.09"30.12"30.12"30.09"30.09"30.12"30.09"30.09"30.09"30.12"30.12"30.12"30.12"30.12"30.09"30.09"30.06"30.03"30.03"30.03"30.03"30.03"30.03"30.06"30.06"30.06"30.06"30.06"30.06"30.06"30.06"30.06"30.06"30.09"30.09"30.09"30.12"30.09"30.09"30.06"30.03"30"30"30"
Wind Speed 6.5 mph3.7 mph3.3 mph4 mph5 mph3.7 mph3.3 mph2.1 mph2.9 mph3.5 mph3.8 mph5.3 mph3 mph1.4 mph3.5 mph4.8 mph6.5 mph7.4 mph8.4 mph8.6 mph10.2 mph11.2 mph10.1 mph8.5 mph4.8 mph4.9 mph3.6 mph3.3 mph2.6 mph3.5 mph4 mph3.4 mph4.1 mph3.4 mph3.1 mph2.5 mph2.1 mph2.2 mph3 mph3.3 mph3.4 mph2.6 mph3.6 mph4.1 mph4.8 mph5.5 mph7.9 mph8.3 mph
Wind
Direction
201°
SSW
181°
S
160°
SSE
153°
SSE
194°
SSW
216°
SW
235°
SW
228°
SW
192°
SSW
264°
W
188°
S
160°
SSE
154°
SSE
214°
SW
205°
SSW
202°
SSW
205°
SSW
209°
SSW
206°
SSW
207°
SSW
211°
SSW
211°
SSW
218°
SW
218°
SW
203°
SSW
197°
SSW
202°
SSW
254°
WSW
255°
WSW
257°
WSW
244°
WSW
226°
SW
247°
WSW
274°
W
299°
WNW
318°
NW
295°
WNW
300°
WNW
284°
WNW
296°
WNW
282°
WNW
259°
W
220°
SW
207°
SSW
201°
SSW
197°
SSW
204°
SSW
206°
SSW

Daily Forecast

Date High Low Precip. Humidity
Today
Apr 16

Clouds
82 °F
59 °F
0%
37%
Wednesday
Apr 17

Clouds
83 °F
62 °F
0%
44%
Thursday
Apr 18

Clouds
85 °F
64 °F
0%
55%
Friday
Apr 19

Clouds
87 °F
65 °F
0%
42%
Saturday
Apr 20

Clouds
82 °F
64 °F
0%
47%
Sunday
Apr 21

Rain
63 °F
52 °F
95%
74%
Monday
Apr 22

Rain
74 °F
54 °F
36%
48%
Tuesday
Apr 23

Clear
79 °F
53 °F
0%
34%
Wednesday
Apr 24

Clear
83 °F
57 °F
0%
35%
Thursday
Apr 25

Clouds
85 °F
61 °F
0%
37%
Friday
Apr 26

Rain
78 °F
61 °F
20%
50%
Saturday
Apr 27

Clouds
72 °F
51 °F
0%
43%
Sunday
Apr 28

Rain
70 °F
61 °F
20%
79%
Monday
Apr 29

Rain
84 °F
66 °F
20%
63%
Tuesday
Apr 30

Rain
85 °F
67 °F
100%
69%
Wednesday
May 1

Rain
86 °F
65 °F
100%
54%

Temperature 8-14 Day Outlook



Precipitation 8-14 Day Outlook




Quick Links
Lake Oliver News
Lake Oliver Photos
Lake Oliver Videos




About Us
Contact Us
Site Map
Search Site
Advertise With Us
   
Oliver.USLakes.info
THE LAKE OLIVER WEBSITE

Copyright 2024, Lakes Online
Privacy    |    Legal